| time (UTC) | temp F | wind direction | speed knots | gust knots | rain 1hr in | rain 24hr in | rain mn in | humidity % | barometer mb |
| 20260503045127 | 49 | 315 | 2.6 | 2.6 | 0.00 | 0.00 | 0.00 | 59 | 1013.7 |
| 20260503044226 | 49 | 337 | 0.9 | 0.9 | 0.00 | 0.00 | 0.00 | 59 | 1013.7 |
| 20260503043226 | 49 | 337 | 1.7 | 1.7 | 0.00 | 0.00 | 0.00 | 60 | 1013.8 |
| 20260503042226 | 49 | 337 | 3.5 | 3.5 | 0.00 | 0.00 | 0.00 | 62 | 1014.0 |
| 20260503041242 | 0 | 0 | 0.0 | 0.0 | 0.00 | 0.00 | 0.00 | 100 | |
| 20260503035329 | 0 | 0 | 0.0 | 0.0 | 0.00 | 0.00 | 0.00 | 100 | |
| 20260503034327 | 0 | 0 | 0.0 | 0.0 | 0.00 | 0.00 | 0.00 | 100 | |
| 20260503033328 | 0 | 0 | 0.0 | 0.0 | 0.00 | 0.00 | 0.00 | 100 | |
| 20260503032326 | 51 | 337 | 2.6 | 2.6 | 0.00 | 0.00 | 0.00 | 58 | 1014.5 |
| 20260503031425 | 51 | 315 | 3.5 | 4.3 | 0.00 | 0.00 | 0.00 | 60 | 1014.4 |
| 20260503031342 | 0 | 0 | 0.0 | 0.0 | 0.00 | 0.00 | 0.00 | 100 | |
| 20260503030327 | 51 | 337 | 1.7 | 1.7 | 0.00 | 0.00 | 0.00 | 58 | 1014.7 |
| 20260503025327 | 52 | 337 | 2.6 | 2.6 | 0.00 | 0.00 | 0.00 | 55 | 1014.7 |
| 20260503024327 | 52 | 319 | 0.0 | 3.5 | 0.00 | 0.00 | 0.00 | 55 | 1014.8 |
| 20260503023425 | 52 | 252 | 0.9 | 2.6 | 0.00 | 0.00 | 0.00 | 58 | 1014.8 |
| 20260503022428 | 0 | 0 | 0.0 | 0.0 | 0.00 | 0.00 | 0.00 | 100 | |
| 20260503021426 | 0 | 0 | 0.0 | 0.0 | 0.00 | 0.00 | 0.00 | 100 | |
| 20260503020514 | 52 | 337 | 0.0 | 0.0 | 0.00 | 0.00 | 0.00 | 56 | 1014.9 |
| 20260503015516 | 53 | 360 | 2.6 | 2.6 | 0.00 | 0.00 | 0.00 | 54 | 1014.9 |
| 20260503014613 | 53 | 337 | 2.6 | 2.6 | 0.00 | 0.00 | 0.00 | 52 | 1014.9 |
| 20260503012616 | 53 | 22 | 0.0 | 0.0 | 0.00 | 0.00 | 0.00 | 54 | 1014.9 |
| 20260503010615 | 53 | 337 | 0.0 | 0.0 | 0.00 | 0.00 | 0.00 | 56 | 1015.1 |
| 20260503005613 | 54 | 350 | 1.7 | 1.7 | 0.00 | 0.00 | 0.00 | 54 | 1015.0 |
| 20260503004616 | 55 | 319 | 1.7 | 1.7 | 0.00 | 0.00 | 0.00 | 52 | 1015.1 |
| 20260503002713 | 58 | 354 | 0.0 | 0.9 | 0.00 | 0.00 | 0.00 | 41 | 1015.2 |
| 20260503001717 | 60 | 293 | 2.6 | 3.5 | 0.00 | 0.00 | 0.00 | 36 | 1015.3 |
| 20260503000715 | 60 | 225 | 1.7 | 3.5 | 0.00 | 0.00 | 0.00 | 36 | 1015.3 |
| 20260502232913 | 63 | 342 | 1.7 | 5.2 | 0.00 | 0.00 | 0.00 | 30 | 1015.6 |
| 20260502232013 | 62 | 33 | 2.6 | 6.1 | 0.00 | 0.00 | 0.00 | 30 | 1015.7 |
| 20260502231014 | 62 | 257 | 0.0 | 1.7 | 0.00 | 0.00 | 0.00 | 29 | 1015.5 |
| 20260502230017 | 63 | 180 | 1.7 | 3.5 | 0.00 | 0.00 | 0.00 | 29 | 1015.7 |
| 20260502225016 | 62 | 114 | 1.7 | 3.5 | 0.00 | 0.00 | 0.00 | 30 | 1015.9 |
| 20260502224014 | 63 | 148 | 2.6 | 5.2 | 0.00 | 0.00 | 0.00 | 32 | 1016.0 |
| 20260502222015 | 62 | 293 | 1.7 | 3.5 | 0.00 | 0.00 | 0.00 | 31 | 1016.0 |
| 20260502221031 | 62 | 230 | 2.6 | 5.2 | 0.00 | 0.00 | 0.00 | 31 | 1016.3 |
| 20260502215117 | 61 | 360 | 3.5 | 6.1 | 0.00 | 0.00 | 0.00 | 30 | 1016.8 |
| 20260502213116 | 61 | 210 | 2.6 | 7.0 | 0.00 | 0.00 | 0.00 | 30 | 1016.8 |
| 20260502210216 | 61 | 61 | 2.6 | 4.3 | 0.00 | 0.00 | 0.00 | 29 | 1017.1 |
| 20260502205216 | 61 | 128 | 3.5 | 8.7 | 0.00 | 0.00 | 0.00 | 29 | 1017.4 |
| 20260502204215 | 60 | 193 | 1.7 | 4.3 | 0.00 | 0.00 | 0.00 | 29 | 1017.3 |
| 20260502203231 | 60 | 217 | 0.0 | 4.3 | 0.00 | 0.00 | 0.00 | 30 | 1017.9 |
| 20260502202316 | 60 | 163 | 8.7 | 11.3 | 0.00 | 0.00 | 0.00 | 29 | 1017.6 |
| 20260502201315 | 59 | 356 | 3.5 | 6.1 | 0.00 | 0.00 | 0.00 | 30 | 1018.2 |
| 20260502195315 | 60 | 121 | 4.3 | 7.8 | 0.00 | 0.00 | 0.00 | 30 | 1018.3 |
| 20260502194413 | 59 | 145 | 7.0 | 12.2 | 0.00 | 0.00 | 0.00 | 32 | 1018.3 |
| 20260502193414 | 59 | 139 | 0.0 | 3.5 | 0.00 | 0.00 | 0.00 | 33 | 1018.5 |
| 20260502192414 | 59 | 309 | 1.7 | 3.5 | 0.00 | 0.00 | 0.00 | 31 | 1018.7 |
| 20260502191417 | 59 | 359 | 1.7 | 7.0 | 0.00 | 0.00 | 0.00 | 31 | 1018.9 |
| 20260502185515 | 58 | 284 | 4.3 | 11.3 | 0.00 | 0.00 | 0.00 | 33 | 1019.1 |
| 20260502184613 | 59 | 135 | 1.7 | 6.1 | 0.00 | 0.00 | 0.00 | 32 | 1019.4 |
| 20260502183614 | 59 | 170 | 0.9 | 3.5 | 0.00 | 0.00 | 0.00 | 33 | 1019.5 |
| 20260502181613 | 58 | 171 | 2.6 | 6.1 | 0.00 | 0.00 | 0.00 | 33 | 1019.6 |
| 20260502180614 | 58 | 16 | 2.6 | 6.1 | 0.00 | 0.00 | 0.00 | 33 | 1019.7 |
| 20260502162814 | 55 | 160 | 2.6 | 3.5 | 0.00 | 0.00 | 0.00 | 36 | 1020.8 |
| 20260502160828 | 55 | 160 | 1.7 | 4.3 | 0.00 | 0.00 | 0.00 | 35 | 1021.0 |
| 20260502151916 | 54 | 214 | 0.9 | 1.7 | 0.00 | 0.00 | 0.00 | 41 | 1021.2 |
| 20260502151814 | 54 | 220 | 0.9 | 2.6 | 0.00 | 0.00 | 0.00 | 41 | 1021.1 |
| 20260502150914 | 54 | 289 | 3.5 | 6.1 | 0.00 | 0.00 | 0.00 | 41 | 1021.2 |
| 20260502130514 | 45 | 195 | 0.0 | 0.9 | 0.00 | 0.00 | 0.00 | 54 | 1022.1 |
| 20260502123515 | 42 | 292 | 0.0 | 0.9 | 0.00 | 0.00 | 0.00 | 59 | 1022.0 |
| 20260502122613 | 41 | 92 | 0.9 | 6.1 | 0.00 | 0.00 | 0.00 | 62 | 1022.0 |
| 20260502121613 | 38 | 131 | 0.9 | 2.6 | 0.00 | 0.00 | 0.00 | 72 | 1022.0 |
| 20260502120614 | 33 | 171 | 0.0 | 1.7 | 0.00 | 0.00 | 0.00 | 86 | 1021.9 |
| 20260502115614 | 31 | 360 | 0.0 | 0.0 | 0.00 | 0.00 | 0.00 | 91 | 1021.7 |
| 20260502114613 | 30 | 337 | 0.9 | 1.7 | 0.00 | 0.00 | 0.00 | 93 | 1021.7 |
| 20260502112629 | 29 | 337 | 0.0 | 0.0 | 0.00 | 0.00 | 0.00 | 93 | 1021.7 |
| 20260502111613 | 29 | 337 | 0.0 | 0.0 | 0.00 | 0.00 | 0.00 | 93 | 1021.6 |
| 20260502110616 | 29 | 337 | 0.0 | 0.0 | 0.00 | 0.00 | 0.00 | 92 | 1021.5 |
| 20260502104715 | 29 | 337 | 0.0 | 0.0 | 0.00 | 0.00 | 0.00 | 91 | 1021.6 |
| 20260502103813 | 29 | 337 | 0.0 | 0.0 | 0.00 | 0.00 | 0.00 | 92 | 1021.6 |
| 20260502102815 | 29 | 7 | 0.0 | 0.0 | 0.00 | 0.00 | 0.00 | 92 | 1021.7 |
| 20260502101815 | 29 | 360 | 0.0 | 0.0 | 0.00 | 0.00 | 0.00 | 92 | 1021.7 |
| 20260502100814 | 29 | 360 | 0.0 | 0.0 | 0.00 | 0.00 | 0.00 | 92 | 1021.7 |
| 20260502091115 | 30 | 315 | 0.0 | 0.0 | 0.00 | 0.00 | 0.00 | 89 | 1021.7 |
| 20260502090114 | 30 | 315 | 0.0 | 0.0 | 0.00 | 0.00 | 0.00 | 89 | 1021.8 |
| 20260502070329 | 31 | 337 | 0.0 | 0.0 | 0.00 | 0.00 | 0.00 | 85 | 1021.7 |
| 20260502065415 | 31 | 337 | 0.0 | 0.0 | 0.00 | 0.00 | 0.00 | 87 | 1021.8 |
| 20260502063414 | 31 | 337 | 0.0 | 0.0 | 0.00 | 0.00 | 0.00 | 86 | 1022.0 |
| 20260502062414 | 31 | 337 | 0.0 | 0.0 | 0.00 | 0.00 | 0.00 | 86 | 1021.9 |
| 20260502061415 | 31 | 337 | 0.0 | 0.0 | 0.00 | 0.00 | 0.00 | 86 | 1021.9 |
| 20260502055514 | 31 | 337 | 0.0 | 0.0 | 0.00 | 0.00 | 0.00 | 86 | 1021.9 |
| 20260502054514 | 31 | 337 | 0.0 | 0.0 | 0.00 | 0.00 | 0.00 | 85 | 1021.9 |
| 20260502052514 | 32 | 337 | 0.0 | 0.0 | 0.00 | 0.00 | 0.00 | 83 | 1021.8 |
| 20260502051612 | 32 | 337 | 0.0 | 0.0 | 0.00 | 0.00 | 0.00 | 83 | 1021.9 |